#timestamp,LO_Frequency,Hit,StdDev 
1595192415.7,286046999.1,N
1595192435.5,286046997.2,N
1595192455.3,286046999.5,N
1595192475.2,286046999.5,N
1595192495.0,286046997.8,N
1595192495.9,286046997.8,N
1595192515.7,286046997.2,N
1595192535.6,286046999.5,N
1595192555.4,286046998.4,N
1595192575.3,286046997.1,N
1595192595.1,286046998.5,N
1595192596.0,286046998.5,N
1595192615.8,286047001.0,N
1595192635.7,286046998.5,N
1595192655.5,286046999.7,N
1595192675.3,286046999.3,N
1595192695.2,286046998.5,N
1595192715.0,286047002.8,N
1595192715.9,286047002.8,N
1595192735.8,286047001.0,N
1595192755.6,286047001.0,N
1595192775.4,286047002.0,N
1595192795.3,286047002.8,N
1595192815.1,286047002.1,N
1595192835.9,286047000.6,N
1595192855.7,286047000.1,N
1595192875.5,286047002.7,N
1595192895.4,286047002.8,N
1595192915.2,286047000.7,N
1595192935.0,286047002.3,N
1595192935.9,286047002.3,N
1595192955.8,286046999.8,N
1595192975.6,286046999.8,N
1595192995.5,286046999.0,N
1595193015.3,286046998.2,N
1595193035.1,286047001.2,N
1595193055.9,286047003.3,N
1595193075.7,286047001.5,N
1595193095.5,286047002.6,N
1595193115.4,286047000.4,N
1595193135.2,286047000.9,N
1595193155.1,286046998.6,N
1595193156.0,286046998.6,N
1595193175.8,286047000.2,N
1595193195.6,286047001.2,N
1595193215.5,286046998.2,N
1595193235.3,286047001.2,N
1595193255.2,286047000.9,N
1595193275.9,286047000.0,N
1595193295.7,286047000.9,N
1595193315.6,286047000.7,N
1595193335.4,286047001.1,N
1595193355.2,286046998.2,N
1595193375.1,286047002.7,N
1595193376.0,286047002.7,N
1595193395.8,286047000.4,N
1595193415.7,286047000.8,N
1595193435.5,286046998.3,N
1595193455.3,286047000.6,N
1595193475.2,286046998.9,N
1595193495.0,286046998.6,N
1595193495.9,286046998.6,N
1595193515.7,286047001.1,N
1595193535.6,286047000.2,N
1595193555.4,286047000.2,N
1595193575.3,286047000.7,N
1595193595.1,286047002.6,N
1595193596.0,286047002.6,N
1595193615.8,286047000.8,N
1595193635.7,286046998.8,N
1595193655.5,286047000.1,N
1595193675.4,286047002.6,N
1595193695.2,286047000.4,N
1595193715.0,286047000.0,N
1595193715.9,286047000.0,N
1595193735.8,286047002.3,N
1595193755.6,286047001.5,N
1595193775.4,286047002.3,N
1595193795.3,286047002.2,N
1595193815.1,286047002.1,N
1595193835.9,286047002.6,N
1595193855.7,286047001.1,N
1595193875.5,286047000.2,N
1595193895.4,286047000.8,N
1595193915.2,286046998.4,N
1595193935.0,286046999.3,N
1595193935.9,286046999.3,N
1595193955.8,286046998.4,N
1595193975.6,286046998.5,N
1595193995.5,286046996.5,N
1595194015.3,286047001.0,N
1595194035.1,286047000.1,N
1595194055.9,286046996.9,N
1595194075.7,286047001.3,N
1595194095.5,286047001.4,N
1595194115.4,286046999.9,N
1595194135.2,286047000.8,N
1595194155.1,286046998.6,N
1595194156.0,286046998.6,N
1595194175.8,286046999.6,N
1595194195.6,286046998.9,N
1595194215.5,286046998.7,N
1595194235.3,286046997.0,N
1595194255.2,286046995.0,Y
1595194275.9,286046996.2,P
1595194325.7,286047000.6,E
1595194335.7,286046999.0,N
1595194355.5,286046996.7,P
1595194375.3,286046994.9,P
1595194395.2,286046998.7,N
1595194415.0,286046999.1,N
1595194415.9,286046999.1,N
1595194435.8,286046999.6,N
1595194455.6,286046996.7,N
1595194475.4,286046998.8,N
1595194495.1,286047002.3,N
1595194515.8,286046998.6,N
1595194535.7,286046999.4,N
1595194555.5,286046997.4,N
1595194575.4,286046995.9,N
1595194595.2,286046995.5,N
1595194615.0,286046995.1,N
1595194615.9,286046995.1,N
1595194635.8,286047000.9,N
1595194655.6,286046996.1,N
1595194675.5,286046995.9,N
1595194695.3,286046996.7,N
1595194715.1,286047000.0,N
1595194735.9,286046996.5,N
1595194755.7,286046998.4,N
1595194775.5,286046999.6,N
1595194795.4,286046996.8,N
1595194815.2,286047001.2,N
1595194835.1,286047000.0,N
1595194836.0,286047000.0,N
1595194855.8,286047001.4,N
1595194875.6,286047001.8,N
1595194895.5,286047003.2,N
1595194915.3,286047005.1,N
1595194935.2,286047005.1,N
1595194955.9,286047002.6,N
1595194975.7,286047001.5,N
1595194995.6,286047005.0,N
1595195015.4,286047004.9,N
1595195035.2,286047004.2,N
1595195055.1,286047002.8,N
1595195056.0,286047002.8,N
1595195075.8,286047002.4,N
1595195095.7,286047005.7,N
1595195115.5,286047004.4,N
1595195135.3,286047003.6,N
1595195155.2,286047001.8,N
1595195175.0,286047002.2,N
1595195175.9,286047002.2,N
1595195195.8,286047000.8,N
1595195215.6,286047001.4,N
1595195235.4,286047000.7,N
1595195255.3,286046999.8,N
1595195275.1,286047001.2,N
1595195295.8,286047002.4,N
1595195315.7,286047001.3,N
1595195335.5,286046999.7,N
1595195355.4,286047000.9,N
1595195375.2,286047000.3,N
1595195395.0,286046998.6,N
1595195395.9,286046998.6,N
1595195415.8,286046997.6,N
1595195435.6,286046996.6,N
1595195455.5,286046998.3,N
1595195475.3,286046996.7,N
1595195495.1,286046997.4,N
1595195515.9,286046997.1,N
1595195535.7,286046996.8,N
1595195555.5,286046996.6,N
1595195575.4,286047004.0,N
1595195595.2,286047004.4,N
1595195615.1,286047003.8,N
1595195616.0,286047003.8,N
1595195635.8,286047001.7,N
1595195655.6,286046999.9,N
1595195675.5,286047002.0,N
1595195695.3,286047002.1,N
1595195715.2,286047002.3,N
1595195735.9,286047000.5,N
1595195755.7,286047002.7,N
1595195775.6,286047001.3,N
1595195795.4,286047004.2,N
1595195815.2,286046999.7,N
1595195835.1,286046999.8,N
1595195836.0,286046999.8,N
1595195855.8,286047001.4,N
1595195875.7,286047003.8,N
1595195895.5,286047004.4,N
1595195915.3,286047006.0,N
1595195935.2,286047002.9,N
1595195955.0,286047003.5,N
1595195955.9,286047003.5,N
1595195975.8,286047002.7,N
1595195995.6,286047001.4,N
